Temperature
-1 -1 -1 -1 -1 -1 -1 -1 -1 -1 -1 0 1 1 1 2 2 2 2 3 3 3 3 3 3 4 4 4 4 5 5 5 6 6 6 6 6 6
-2 -2 -1 -1 -1 -1 -1 -1 -1 -1 -1 -1 -0 1 1 1 1 1 2 2 2 3 3 3 3 3 3 4 4 4 5 5 5 5 5 5 5 5
-2 -2 -2 -2 -2 -2 -2 -2 -2 -2 -2 -1 -1 -0 0 0 1 1 1 1 2 2 2 2 3 3 3 3 4 4 4 4 4 4 5 5 5 5
-3 -3 -3 -3 -2 -2 -2 -2 -2 -2 -2 -2 -1 -1 -1 -0 0 0 1 1 1 2 2 2 2 3 3 3 3 3 4 4 4 4 4 4 4 4
-4 -4 -3 -3 -3 -3 -3 -3 -3 -3 -3 -3 -2 -2 -1 -1 -1 -0 0 0 1 1 1 1 2 2 2 3 3 3 3 3 3 3 3 4 4 4
-5 -4 -4 -4 -4 -4 -4 -3 -3 -3 -3 -3 -3 -3 -2 -2 -1 -1 -1 -0 0 1 1 1 1 2 2 2 2 3 3 3 3 3 3 3 3 3
-5 -5 -5 -5 -5 -5 -4 -4 -4 -4 -4 -3 -3 -3 -3 -2 -2 -2 -1 -1 -0 0 0 1 1 1 2 2 2 2 2 2 2 2 2 3 3 3
-5 -5 -5 -5 -5 -5 -5 -4 -4 -4 -4 -4 -4 -4 -3 -3 -3 -2 -2 -2 -1 -1 -0 0 0 1 1 1 1 2 2 2 2 2 2 2 2 2
-6 -6 -6 -5 -5 -5 -5 -5 -5 -4 -4 -4 -4 -4 -4 -3 -3 -3 -2 -2 -2 -1 -1 -1 -0 0 1 1 1 1 1 1 1 1 1 1 2 2
-6 -6 -6 -6 -6 -6 -5 -5 -5 -5 -4 -4 -4 -4 -4 -4 -3 -3 -3 -3 -2 -2 -2 -1 -1 -1 -0 0 0 0 1 0 1 1 1 1 1 1
-6 -6 -6 -6 -6 -6 -6 -5 -5 -5 -5 -5 -5 -4 -4 -4 -4 -4 -3 -3 -3 -2 -2 -2 -2 -1 -1 -1 -0 -0 -0 -0 0 0 0 1 1 1
-7 -7 -7 -7 -6 -6 -6 -6 -6 -6 -5 -5 -5 -5 -5 -4 -4 -4 -4 -4 -3 -3 -3 -2 -2 -2 -2 -1 -1 -1 -1 -0 -0 -0 -0 -0 -0 -0
-7 -7 -7 -7 -7 -7 -6 -6 -6 -6 -6 -6 -6 -5 -5 -5 -5 -4 -4 -4 -4 -4 -3 -3 -3 -3 -3 -3 -2 -2 -1 -1 -1 -1 -1 -1 -1 -1
-8 -8 -8 -7 -7 -7 -7 -7 -7 -7 -6 -6 -6 -6 -6 -6 -5 -5 -5 -5 -4 -4 -4 -3 -3 -3 -3 -3 -3 -2 -2 -2 -2 -2 -2 -1 -1 -1
-8 -8 -8 -8 -8 -7 -7 -7 -7 -7 -7 -7 -7 -7 -7 -6 -6 -6 -5 -5 -5 -5 -4 -4 -4 -4 -4 -3 -3 -3 -3 -3 -3 -2 -2 -2 -2 -2
-8 -8 -8 -8 -8 -8 -8 -8 -8 -8 -8 -8 -7 -7 -7 -7 -7 -7 -6 -6 -5 -5 -5 -5 -5 -4 -4 -4 -3 -3 -3 -3 -3 -3 -3 -3 -3 -2
-9 -9 -9 -9 -8 -8 -8 -8 -8 -8 -8 -8 -8 -8 -8 -8 -7 -7 -7 -7 -6 -6 -5 -5 -5 -5 -5 -4 -4 -4 -4 -4 -4 -4 -4 -3 -3 -3
-9 -9 -9 -9 -9 -9 -9 -9 -9 -9 -9 -9 -9 -8 -8 -8 -8 -8 -8 -7 -7 -6 -6 -6 -6 -5 -5 -5 -5 -5 -5 -5 -4 -4 -4 -4 -4 -3
-10 -10 -10 -10 -10 -10 -10 -10 -10 -9 -9 -9 -9 -9 -9 -9 -9 -9 -8 -8 -8 -7 -7 -6 -6 -6 -6 -6 -6 -5 -5 -5 -5 -5 -5 -5 -4 -4
-11 -11 -11 -11 -11 -10 -10 -10 -10 -10 -10 -10 -10 -10 -9 -9 -9 -9 -9 -9 -8 -8 -7 -7 -7 -7 -7 -7 -7 -6 -6 -6 -6 -6 -5 -5 -5 -5
-12 -12 -12 -11 -11 -11 -11 -11 -11 -11 -10 -10 -10 -10 -10 -10 -10 -9 -9 -9 -9 -8 -8 -8 -7 -7 -7 -7 -7 -7 -6 -6 -6 -6 -6 -6 -6 -5
-12 -12 -12 -12 -12 -12 -11 -11 -11 -11 -11 -11 -10 -10 -10 -10 -10 -10 -9 -9 -9 -9 -8 -8 -8 -8 -8 -8 -8 -7 -7 -7 -7 -7 -7 -7 -7 -7
-13 -12 -12 -12 -12 -12 -12 -12 -11 -11 -11 -11 -11 -11 -11 -10 -10 -10 -10 -10 -9 -9 -9 -9 -8 -8 -8 -8 -8 -8 -8 -8 -8 -7 -7 -7 -7 -7
Wind_Speed
5 5 5 5 4 4 5 5 5 7 7 5 3 3 5 6 8 9 8 10 11 12 12 11 10 11 12 12 11 11 11 10 10 11 11 12 12 11
5 5 6 5 4 4 5 5 5 6 8 5 5 5 6 8 10 9 10 12 12 12 11 11 11 12 12 12 11 11 11 11 11 11 12 12 12 12
6 6 7 6 5 4 5 5 5 5 8 8 6 5 6 7 7 9 10 9 10 12 12 12 12 12 12 12 12 12 12 12 12 12 12 12 12 13
7 7 7 7 6 5 5 6 6 6 7 9 7 6 7 7 7 7 7 8 8 11 12 12 13 13 12 12 13 13 12 12 13 12 12 12 12 12
7 8 8 7 7 5 6 6 6 6 6 7 8 6 6 5 6 7 7 6 8 10 11 11 12 13 13 13 13 13 12 12 12 13 12 12 12 12
8 8 8 8 7 7 7 6 6 6 6 6 7 6 6 5 5 5 6 5 6 6 7 8 10 11 12 12 12 12 11 12 12 13 13 12 12 12
8 8 8 10 11 9 8 6 6 6 6 7 7 6 5 5 5 5 6 5 6 5 4 6 6 6 8 9 11 12 12 12 13 13 12 12 12 12
8 8 8 9 11 13 14 12 10 8 7 7 7 7 8 6 6 6 5 5 6 3 4 5 4 4 5 6 9 11 12 13 13 13 13 13 13 13
8 7 8 8 10 7 10 12 12 13 12 9 9 9 8 7 7 7 7 7 7 5 4 5 4 4 5 7 9 10 11 11 12 13 13 13 13 13
7 7 7 8 9 9 7 7 7 8 10 8 8 9 9 8 8 8 7 6 5 4 4 5 4 4 4 5 9 10 11 11 12 12 13 13 13 13
7 7 7 7 12 14 9 7 7 7 10 11 12 11 12 12 9 5 5 4 5 5 3 3 3 2 3 4 6 9 10 11 11 11 11 11 11 11
6 6 10 11 13 13 7 6 8 7 6 7 7 8 8 9 9 6 5 5 4 4 3 2 3 2 2 3 3 5 6 8 10 10 11 10 9 7
6 5 6 13 14 13 11 7 9 8 5 5 5 5 5 4 4 5 4 4 5 4 3 2 2 2 2 2 2 3 4 4 5 7 9 9 9 8
6 6 7 13 14 13 10 9 10 8 4 4 4 4 4 4 4 4 4 4 4 4 4 3 2 3 3 2 3 2 3 3 3 4 4 6 7 8
6 10 12 13 12 9 9 10 7 4 4 4 4 4 4 4 4 3 4 3 3 3 3 3 3 3 3 3 3 3 2 2 3 3 3 4 4 4
7 9 12 11 9 8 7 5 4 3 4 4 4 4 3 3 3 3 3 3 2 3 2 2 2 2 2 2 2 3 2 3 2 2 2 3 4 5
7 5 4 4 4 3 3 4 3 3 4 3 3 3 4 4 4 3 3 2 3 3 2 2 2 1 1 1 2 2 2 2 3 2 2 2 3 4
8 5 5 4 4 4 4 4 4 3 3 3 3 3 3 3 4 3 3 2 3 3 2 1 0 1 1 2 1 3 2 2 2 2 2 3 4 3
6 4 4 4 4 4 4 4 4 4 4 3 3 3 3 3 4 4 3 3 3 3 2 2 1 1 2 3 2 1 2 2 1 2 3 3 4 4
4 4 4 5 4 4 4 4 4 4 4 4 3 3 3 3 3 4 3 3 3 3 3 2 2 3 4 3 2 2 3 3 2 3 3 2 2 4
5 4 4 5 4 4 4 4 4 4 4 4 4 4 3 3 3 4 4 5 4 3 3 3 3 3 1 0 1 2 2 3 4 3 3 2 3 3
5 5 4 5 4 4 4 4 4 4 4 4 4 4 4 3 4 4 4 4 4 3 4 3 2 1 1 2 3 2 2 1 2 4 5 6 4 4
5 5 4 4 4 4 4 4 5 4 4 4 4 4 4 4 4 4 4 4 3 3 3 3 2 2 2 2 2 2 2 2 1 2 3 5 6 9
Wind_Direction
290 287 285 282 273 269 269 263 266 281 283 274 273 279 300 295 290 291 282 268 260 258 256 253 253 257 259 256 251 237 223 214 207 204 201 200 201 204
292 289 283 280 277 270 265 261 258 266 275 278 286 289 294 291 285 284 282 277 263 257 254 250 249 252 252 250 245 230 224 216 209 207 207 207 207 206
290 288 282 281 279 276 270 260 258 260 270 283 287 289 287 286 286 284 276 274 263 254 249 248 249 248 246 245 239 224 221 217 211 210 211 211 209 208
287 284 283 283 279 280 275 266 261 259 264 277 284 282 276 273 276 279 280 278 270 256 249 248 249 245 243 239 230 218 216 216 212 210 210 210 210 212
283 282 281 280 279 277 274 272 270 271 267 271 279 280 278 272 275 279 278 279 275 259 249 247 248 247 242 234 221 214 213 213 209 208 208 209 210 213
279 278 278 275 276 278 275 272 274 274 271 270 275 278 277 268 261 267 277 275 277 270 256 254 252 248 238 230 220 213 211 211 209 208 207 208 210 212
277 274 273 280 281 280 278 274 275 275 276 272 276 279 278 271 263 265 270 277 279 270 262 258 246 236 230 227 220 214 215 215 212 211 211 212 213 213
280 278 277 279 283 284 283 281 277 273 273 275 278 272 270 268 267 268 269 276 280 255 252 254 230 227 228 225 224 220 218 216 214 213 214 215 215 215
281 282 287 288 291 281 281 282 279 277 273 271 270 269 271 267 261 262 261 264 267 257 251 255 231 234 234 234 230 219 217 218 220 218 216 217 217 217
282 279 279 282 283 285 281 279 277 279 277 275 267 267 270 270 262 258 258 272 280 268 247 252 235 236 247 234 232 226 223 225 224 224 221 219 219 220
287 286 284 280 287 292 289 282 284 285 289 287 288 286 284 280 276 272 263 262 277 277 256 237 226 241 242 230 225 224 225 228 226 225 224 222 223 222
288 287 291 292 292 295 287 280 282 288 294 296 295 294 288 281 277 262 250 252 271 273 249 235 223 222 241 240 220 217 221 223 224 226 225 222 220 217
293 292 289 297 297 297 295 285 285 293 289 288 291 293 293 286 281 280 267 251 254 263 253 252 227 225 218 228 236 221 214 216 219 226 222 221 220 217
296 296 294 300 301 301 299 295 296 299 295 291 293 292 294 296 293 292 288 276 269 264 249 256 248 219 208 228 244 219 210 209 210 216 218 223 224 227
301 302 304 305 306 303 298 299 302 300 296 294 293 296 299 300 306 308 313 314 313 293 258 262 262 236 221 218 226 224 233 228 206 199 213 221 225 226
305 305 307 307 306 304 304 303 304 297 297 294 299 301 308 305 304 307 305 312 308 318 333 310 268 236 235 237 215 226 224 211 199 197 208 233 241 229
309 304 304 310 311 312 310 308 307 309 307 305 302 300 305 307 305 307 297 305 296 288 303 329 8 19 298 218 224 222 214 219 211 205 209 249 259 242
322 317 317 318 318 320 320 319 317 313 308 304 300 300 301 303 304 304 302 294 293 288 277 271 292 0 349 329 256 217 214 227 226 219 213 227 252 255
326 319 317 318 316 316 317 316 315 315 312 305 300 296 293 294 298 298 297 294 291 289 274 255 239 221 238 268 285 251 213 221 225 246 233 234 248 257
325 320 318 316 314 312 311 311 311 313 314 310 304 297 291 286 287 290 287 284 284 291 286 278 260 240 233 239 248 279 249 215 217 238 258 269 274 275
322 318 317 317 314 311 309 309 307 305 306 307 303 298 293 286 282 283 283 283 284 281 278 275 273 282 287 123 250 275 268 244 232 234 240 251 270 271
317 315 315 316 316 314 312 311 308 304 303 299 297 296 294 285 277 276 277 274 274 274 283 289 283 287 258 229 237 253 273 297 300 279 256 243 232 234
313 311 309 309 310 310 307 305 302 300 299 295 292 290 288 287 285 281 280 275 272 271 273 282 287 288 268 235 226 236 248 261 269 289 286 277 262 260
Height
1492 1491 1491 1490 1489 1489 1489 1488 1487 1483 1480 1480 1481 1481 1482 1482 1482 1482 1482 1483 1483 1484 1485 1485 1486 1487 1488 1489 1490 1492 1494 1496 1498 1500 1503 1506 1508 1511
1487 1487 1486 1485 1484 1484 1484 1483 1482 1481 1477 1475 1475 1475 1476 1476 1476 1476 1476 1477 1477 1478 1478 1479 1480 1481 1482 1482 1484 1486 1488 1490 1493 1495 1497 1500 1503 1505
1482 1482 1481 1480 1479 1478 1478 1477 1477 1476 1473 1470 1470 1470 1470 1470 1470 1470 1470 1470 1470 1471 1472 1472 1473 1474 1475 1476 1478 1480 1482 1484 1487 1489 1491 1494 1497 1499
1477 1476 1475 1474 1473 1472 1472 1471 1471 1470 1469 1465 1464 1464 1464 1464 1464 1464 1463 1464 1464 1464 1465 1465 1466 1468 1469 1470 1471 1474 1477 1479 1481 1483 1486 1488 1490 1493
1472 1471 1470 1469 1467 1466 1466 1465 1465 1464 1464 1462 1459 1459 1458 1458 1458 1458 1457 1457 1457 1458 1458 1459 1460 1461 1462 1463 1465 1468 1471 1473 1475 1478 1480 1483 1485 1487
1467 1466 1465 1463 1462 1461 1461 1460 1459 1459 1458 1456 1455 1453 1452 1452 1452 1452 1450 1451 1451 1451 1451 1452 1453 1454 1455 1457 1459 1462 1464 1467 1469 1472 1474 1477 1479 1481
1461 1460 1459 1458 1457 1456 1456 1455 1454 1453 1452 1451 1449 1448 1447 1446 1446 1446 1446 1444 1444 1444 1445 1445 1446 1447 1449 1451 1453 1456 1458 1461 1463 1466 1468 1471 1473 1475
1455 1454 1453 1452 1451 1451 1451 1450 1450 1448 1446 1445 1444 1442 1441 1441 1441 1441 1441 1440 1438 1439 1440 1439 1440 1441 1442 1445 1447 1449 1452 1455 1457 1460 1462 1465 1467 1469
1450 1449 1448 1446 1446 1446 1445 1444 1443 1442 1442 1441 1438 1437 1436 1436 1436 1435 1434 1434 1433 1433 1434 1432 1434 1434 1437 1439 1441 1443 1446 1448 1451 1453 1456 1459 1461 1463
1445 1444 1442 1441 1441 1440 1439 1437 1436 1436 1435 1434 1433 1431 1431 1430 1430 1430 1429 1429 1428 1428 1429 1427 1428 1429 1431 1433 1435 1437 1440 1443 1445 1447 1450 1452 1454 1456
1440 1439 1437 1436 1435 1435 1434 1432 1431 1430 1430 1429 1428 1426 1425 1425 1425 1425 1424 1423 1421 1421 1423 1423 1423 1424 1425 1427 1429 1432 1434 1436 1438 1441 1443 1445 1448 1450
1435 1434 1433 1432 1431 1430 1429 1427 1425 1424 1424 1423 1422 1421 1420 1419 1419 1419 1419 1418 1417 1417 1418 1419 1419 1420 1420 1422 1424 1426 1428 1430 1433 1435 1437 1439 1441 1443
1430 1429 1428 1427 1426 1425 1424 1423 1421 1420 1419 1418 1416 1415 1414 1413 1413 1413 1413 1414 1413 1413 1414 1415 1414 1415 1416 1416 1418 1421 1423 1425 1427 1429 1431 1433 1436 1437
1426 1424 1423 1423 1422 1420 1419 1418 1417 1416 1415 1413 1411 1410 1410 1409 1408 1408 1408 1409 1409 1409 1409 1410 1410 1410 1411 1411 1413 1415 1417 1419 1421 1423 1425 1427 1429 1431
1422 1420 1419 1418 1417 1416 1415 1414 1413 1412 1410 1409 1407 1406 1406 1405 1404 1404 1403 1403 1403 1404 1405 1405 1406 1406 1407 1407 1408 1410 1412 1414 1416 1418 1420 1421 1423 1425
1418 1416 1415 1413 1413 1412 1411 1410 1409 1408 1407 1406 1404 1403 1402 1401 1400 1400 1399 1399 1399 1399 1400 1401 1402 1402 1403 1403 1405 1406 1407 1409 1411 1413 1414 1416 1418 1420
1414 1412 1410 1409 1408 1407 1406 1406 1405 1404 1403 1402 1401 1399 1399 1398 1397 1397 1396 1396 1396 1395 1396 1397 1398 1399 1399 1400 1400 1402 1403 1405 1407 1408 1409 1410 1412 1414
1411 1408 1407 1406 1405 1404 1403 1402 1401 1400 1400 1399 1398 1397 1396 1395 1394 1394 1394 1393 1393 1393 1393 1393 1394 1395 1396 1397 1398 1398 1399 1401 1403 1404 1405 1405 1406 1409
1407 1405 1404 1403 1402 1401 1400 1399 1398 1397 1396 1395 1395 1394 1393 1393 1392 1391 1391 1390 1390 1390 1390 1390 1391 1391 1392 1392 1394 1396 1396 1397 1399 1400 1400 1401 1402 1403
1404 1403 1402 1400 1399 1398 1397 1396 1395 1394 1393 1392 1391 1391 1390 1390 1389 1388 1388 1388 1387 1387 1387 1387 1388 1388 1389 1390 1390 1391 1394 1394 1395 1395 1396 1397 1398 1400
1402 1401 1399 1398 1397 1395 1394 1393 1392 1391 1390 1389 1388 1388 1387 1387 1386 1386 1385 1385 1385 1384 1384 1384 1385 1386 1386 1387 1387 1387 1389 1391 1392 1392 1393 1393 1393 1394
1400 1398 1397 1395 1394 1393 1392 1390 1389 1388 1387 1386 1385 1385 1384 1384 1383 1383 1382 1382 1382 1381 1381 1381 1382 1382 1383 1383 1382 1383 1384 1386 1387 1389 1390 1390 1389 1389
1397 1396 1394 1393 1391 1390 1389 1387 1386 1385 1384 1383 1382 1381 1381 1380 1380 1380 1379 1379 1379 1378 1378 1378 1378 1378 1378 1379 1379 1379 1380 1381 1382 1384 1385 1386 1387 1387